Time,TemperatureF,DewpointF,PressureIn,WindDirection,WindDirectionDegrees,WindSpeedMPH,WindSpeedGustMPH,Humidity,HourlyPrecipIn,Conditions,Clouds,dailyrainin,SolarRadiationWatts/m^2,SoftwareType,DateUTC
2017-04-23 04:20:00,39.2,36.5,30.07,NW,315,2.0,7.0,90,0.00,,CLR,0.00,0.00,VWS V15.00,2017-04-23 08:20:00,
2017-04-23 04:36:00,39.0,36.3,30.08,NNW,334,0.0,2.0,90,0.00,,CLR,0.00,0.00,VWS V15.00,2017-04-23 08:36:00,
2017-04-23 04:42:00,38.9,36.2,30.08,WNW,300,0.0,5.0,90,0.00,,CLR,0.00,0.00,VWS V15.00,2017-04-23 08:42:00,
2017-04-23 04:47:00,38.9,36.2,30.08,West,260,0.0,5.0,90,0.00,,CLR,0.00,0.00,VWS V15.00,2017-04-23 08:47:00,
2017-04-23 04:52:00,38.9,36.2,30.08,NW,320,0.0,4.0,90,0.00,,CLR,0.00,0.00,VWS V15.00,2017-04-23 08:52:00,
2017-04-23 04:57:00,38.8,36.1,30.08,NNW,336,0.0,7.0,90,0.00,,CLR,0.00,0.00,VWS V15.00,2017-04-23 08:57:00,
2017-04-23 05:02:00,38.8,36.1,30.08,NNW,346,0.0,3.0,90,0.00,,CLR,0.00,0.00,VWS V15.00,2017-04-23 09:02:00,
2017-04-23 05:07:00,38.8,36.1,30.08,WNW,287,0.0,6.0,90,0.00,,CLR,0.00,0.00,VWS V15.00,2017-04-23 09:07:00,
2017-04-23 05:12:00,38.7,36.0,30.08,NW,304,0.0,3.0,90,0.00,,CLR,0.00,0.00,VWS V15.00,2017-04-23 09:12:00,
2017-04-23 05:17:00,38.7,36.0,30.08,NW,308,0.0,3.0,90,0.00,,CLR,0.00,0.00,VWS V15.00,2017-04-23 09:17:00,
2017-04-23 05:22:00,38.6,35.9,30.08,NNW,340,0.0,5.0,90,0.00,,CLR,0.00,0.00,VWS V15.00,2017-04-23 09:22:00,
2017-04-23 05:27:00,38.5,35.8,30.08,NNW,339,1.0,6.0,90,0.00,,CLR,0.00,0.00,VWS V15.00,2017-04-23 09:27:00,
2017-04-23 05:32:00,38.4,35.7,30.09,NW,319,0.0,5.0,90,0.00,,CLR,0.00,0.00,VWS V15.00,2017-04-23 09:32:00,
2017-04-23 05:37:00,38.3,35.6,30.09,North,5,0.0,5.0,90,0.00,,CLR,0.00,0.00,VWS V15.00,2017-04-23 09:37:00,
2017-04-23 05:42:00,38.3,35.6,30.09,WNW,287,0.0,3.0,90,0.00,,CLR,0.00,0.00,VWS V15.00,2017-04-23 09:42:00,
2017-04-23 05:47:00,38.2,35.5,30.09,North,355,0.0,5.0,90,0.00,,CLR,0.00,0.00,VWS V15.00,2017-04-23 09:47:00,
2017-04-23 05:52:00,38.2,35.5,30.09,NNW,331,0.0,4.0,90,0.00,,CLR,0.00,0.00,VWS V15.00,2017-04-23 09:52:00,
2017-04-23 05:57:00,38.1,35.4,30.09,NW,323,0.0,4.0,90,0.00,,CLR,0.00,0.00,VWS V15.00,2017-04-23 09:57:00,
2017-04-23 06:02:00,38.1,35.4,30.10,WNW,298,0.0,3.0,90,0.00,,CLR,0.00,5.00,VWS V15.00,2017-04-23 10:02:00,
2017-04-23 06:07:00,38.0,35.3,30.10,NNW,333,0.0,4.0,90,0.00,,CLR,0.00,5.00,VWS V15.00,2017-04-23 10:07:00,
2017-04-23 06:12:00,38.0,35.3,30.10,NW,317,0.0,0.0,90,0.00,,CLR,0.00,7.00,VWS V15.00,2017-04-23 10:12:00,
2017-04-23 06:17:00,38.0,35.3,30.10,NW,313,0.0,3.0,90,0.00,,CLR,0.00,12.00,VWS V15.00,2017-04-23 10:17:00,
2017-04-23 06:22:00,37.9,35.2,30.10,NW,313,0.0,0.0,90,0.00,,CLR,0.00,16.00,VWS V15.00,2017-04-23 10:22:00,
2017-04-23 06:27:00,37.9,35.2,30.11,North,9,0.0,5.0,90,0.00,,CLR,0.00,18.00,VWS V15.00,2017-04-23 10:27:00,
2017-04-23 06:32:00,37.9,35.2,30.11,NNW,343,0.0,1.0,90,0.00,,CLR,0.00,19.00,VWS V15.00,2017-04-23 10:32:00,
2017-04-23 06:37:00,38.0,35.3,30.11,NNW,338,0.0,1.0,90,0.00,,CLR,0.00,21.00,VWS V15.00,2017-04-23 10:37:00,
2017-04-23 06:42:00,38.1,35.4,30.12,NW,312,0.0,1.0,90,0.00,,CLR,0.00,23.00,VWS V15.00,2017-04-23 10:42:00,
2017-04-23 06:47:00,38.2,35.5,30.12,NNW,332,0.0,4.0,90,0.00,,CLR,0.00,25.00,VWS V15.00,2017-04-23 10:47:00,
2017-04-23 06:52:00,38.3,35.6,30.12,NW,324,0.0,2.0,90,0.00,,CLR,0.00,26.00,VWS V15.00,2017-04-23 10:52:00,
2017-04-23 06:57:00,38.4,35.7,30.12,WNW,297,0.0,4.0,90,0.00,,CLR,0.00,49.00,VWS V15.00,2017-04-23 10:57:00,
2017-04-23 07:02:00,38.6,35.9,30.13,NW,313,0.0,4.0,90,0.00,,CLR,0.00,33.00,VWS V15.00,2017-04-23 11:02:00,
2017-04-23 07:07:00,38.8,36.1,30.13,WNW,296,0.0,6.0,90,0.00,,CLR,0.00,105.00,VWS V15.00,2017-04-23 11:07:00,
2017-04-23 07:12:00,39.1,36.4,30.13,NW,321,4.0,4.0,90,0.00,,CLR,0.00,100.00,VWS V15.00,2017-04-23 11:12:00,
2017-04-23 07:17:00,39.4,36.7,30.13,North,355,0.0,4.0,90,0.00,,CLR,0.00,93.00,VWS V15.00,2017-04-23 11:17:00,
2017-04-23 07:22:00,39.7,37.0,30.14,WNW,303,0.0,4.0,90,0.00,,CLR,0.00,95.00,VWS V15.00,2017-04-23 11:22:00,
2017-04-23 07:27:00,40.1,37.4,30.14,NW,318,2.0,4.0,90,0.00,,CLR,0.00,134.00,VWS V15.00,2017-04-23 11:27:00,
2017-04-23 07:32:00,40.5,37.8,30.14,NW,308,0.0,0.0,90,0.00,,CLR,0.00,69.00,VWS V15.00,2017-04-23 11:32:00,
2017-04-23 07:37:00,40.9,38.2,30.14,NNW,340,0.0,9.0,90,0.00,,CLR,0.00,90.00,VWS V15.00,2017-04-23 11:37:00,
2017-04-23 07:38:00,41.0,38.3,30.14,WNW,291,0.0,9.0,90,0.00,,CLR,0.00,91.00,VWS V15.00,2017-04-23 11:38:00,
2017-04-23 07:43:00,41.5,38.5,30.14,NNW,332,0.0,8.0,89,0.00,,CLR,0.00,130.00,VWS V15.00,2017-04-23 11:43:00,
2017-04-23 07:48:00,42.0,39.0,30.14,NE,45,0.0,8.0,89,0.00,,CLR,0.00,229.00,VWS V15.00,2017-04-23 11:48:00,
2017-04-23 07:53:00,42.6,39.6,30.14,North,360,4.0,6.0,89,0.00,,CLR,0.00,297.00,VWS V15.00,2017-04-23 11:53:00,
2017-04-23 07:58:00,43.1,39.8,30.15,WNW,302,3.0,15.0,88,0.00,,CLR,0.00,114.00,VWS V15.00,2017-04-23 11:58:00,
2017-04-23 08:03:00,43.7,40.1,30.15,NW,317,3.0,11.0,87,0.00,,CLR,0.00,185.00,VWS V15.00,2017-04-23 12:03:00,
2017-04-23 08:08:00,44.2,40.0,30.15,NNW,338,0.0,0.0,85,0.00,,CLR,0.00,178.00,VWS V15.00,2017-04-23 12:08:00,
2017-04-23 08:13:00,44.7,39.9,30.15,WNW,299,4.0,8.0,83,0.00,,CLR,0.00,229.00,VWS V15.00,2017-04-23 12:13:00,
2017-04-23 08:18:00,45.1,40.2,30.15,NNE,18,0.0,8.0,83,0.00,,CLR,0.00,148.00,VWS V15.00,2017-04-23 12:18:00,
2017-04-23 08:23:00,45.6,40.7,30.15,WNW,302,1.0,7.0,83,0.00,,CLR,0.00,167.00,VWS V15.00,2017-04-23 12:23:00,
2017-04-23 08:28:00,45.9,40.4,30.16,NNW,342,0.0,0.0,81,0.00,,CLR,0.00,202.00,VWS V15.00,2017-04-23 12:28:00,
2017-04-23 08:33:00,46.2,40.4,30.16,NW,308,10.0,10.0,80,0.00,,CLR,0.00,271.00,VWS V15.00,2017-04-23 12:33:00,
2017-04-23 08:38:00,46.6,40.5,30.16,NE,53,6.0,6.0,79,0.00,,CLR,0.00,311.00,VWS V15.00,2017-04-23 12:38:00,
2017-04-23 08:43:00,47.1,41.3,30.16,NNE,22,0.0,7.0,80,0.00,,CLR,0.00,364.00,VWS V15.00,2017-04-23 12:43:00,
2017-04-23 08:48:00,47.5,41.3,30.16,NW,317,4.0,10.0,79,0.00,,CLR,0.00,313.00,VWS V15.00,2017-04-23 12:48:00,
2017-04-23 08:59:00,47.9,40.4,30.16,North,360,1.0,4.0,75,0.00,,CLR,0.00,473.00,VWS V15.00,2017-04-23 12:59:00,
2017-04-23 09:04:00,48.6,42.1,30.16,NNW,329,3.0,6.0,78,0.00,,CLR,0.00,541.00,VWS V15.00,2017-04-23 13:04:00,
2017-04-23 09:09:00,49.1,41.5,30.15,NNE,22,0.0,0.0,75,0.00,,CLR,0.00,559.00,VWS V15.00,2017-04-23 13:09:00,
2017-04-23 09:14:00,49.5,41.6,30.16,NNE,17,3.0,4.0,74,0.00,,CLR,0.00,575.00,VWS V15.00,2017-04-23 13:14:00,
2017-04-23 09:19:00,50.0,41.7,30.15,NNW,344,2.0,4.0,73,0.00,,CLR,0.00,591.00,VWS V15.00,2017-04-23 13:19:00,
2017-04-23 09:24:00,50.4,41.4,30.15,NNE,22,5.0,8.0,71,0.00,,CLR,0.00,603.00,VWS V15.00,2017-04-23 13:24:00,
2017-04-23 09:29:00,50.8,41.8,30.16,NE,39,5.0,5.0,71,0.00,,CLR,0.00,619.00,VWS V15.00,2017-04-23 13:29:00,
2017-04-23 09:34:00,51.2,41.4,30.16,NW,322,4.0,5.0,69,0.00,,CLR,0.00,633.00,VWS V15.00,2017-04-23 13:34:00,
2017-04-23 09:39:00,51.7,41.9,30.16,NNW,346,3.0,3.0,69,0.00,,CLR,0.00,645.00,VWS V15.00,2017-04-23 13:39:00,
2017-04-23 09:44:00,52.2,42.0,30.16,NNE,32,0.0,7.0,68,0.00,,CLR,0.00,656.00,VWS V15.00,2017-04-23 13:44:00,
2017-04-23 09:49:00,52.7,41.7,30.16,NNE,32,0.0,0.0,66,0.00,,CLR,0.00,671.00,VWS V15.00,2017-04-23 13:49:00,
2017-04-23 09:54:00,53.2,41.8,30.16,NNE,15,0.0,4.0,65,0.00,,CLR,0.00,686.00,VWS V15.00,2017-04-23 13:54:00,
2017-04-23 09:59:00,53.3,41.8,30.17,NNE,22,1.0,1.0,65,0.00,,CLR,0.00,700.00,VWS V15.00,2017-04-23 13:59:00,
2017-04-23 10:04:00,53.7,42.2,30.17,NNE,32,2.0,4.0,65,0.00,,CLR,0.00,714.00,VWS V15.00,2017-04-23 14:04:00,
2017-04-23 10:09:00,54.1,42.2,30.17,NE,49,0.0,0.0,64,0.00,,CLR,0.00,492.00,VWS V15.00,2017-04-23 14:09:00,
2017-04-23 10:14:00,54.4,42.1,30.17,NNE,32,0.0,6.0,63,0.00,,CLR,0.00,737.00,VWS V15.00,2017-04-23 14:14:00,
2017-04-23 10:19:00,55.2,43.7,30.17,NNE,33,3.0,4.0,65,0.00,,CLR,0.00,747.00,VWS V15.00,2017-04-23 14:19:00,
2017-04-23 10:24:00,55.5,42.3,30.17,NNE,26,0.0,4.0,61,0.00,,CLR,0.00,759.00,VWS V15.00,2017-04-23 14:24:00,
2017-04-23 10:29:00,55.9,42.2,30.17,NNE,24,0.0,2.0,60,0.00,,CLR,0.00,768.00,VWS V15.00,2017-04-23 14:29:00,
2017-04-23 10:34:00,56.3,42.2,30.17,NNE,29,0.0,2.0,59,0.00,,CLR,0.00,780.00,VWS V15.00,2017-04-23 14:34:00,
2017-04-23 10:39:00,56.9,42.7,30.17,NNE,25,0.0,3.0,59,0.00,,CLR,0.00,788.00,VWS V15.00,2017-04-23 14:39:00,
2017-04-23 10:44:00,57.2,43.0,30.17,NE,55,0.0,3.0,59,0.00,,CLR,0.00,796.00,VWS V15.00,2017-04-23 14:44:00,
2017-04-23 10:49:00,57.6,42.5,30.17,ENE,69,0.0,0.0,57,0.00,,CLR,0.00,744.00,VWS V15.00,2017-04-23 14:49:00,
2017-04-23 10:54:00,58.0,42.9,30.17,NE,42,0.0,5.0,57,0.00,,CLR,0.00,701.00,VWS V15.00,2017-04-23 14:54:00,
2017-04-23 10:59:00,58.1,43.0,30.17,NE,49,0.0,0.0,57,0.00,,CLR,0.00,519.00,VWS V15.00,2017-04-23 14:59:00,
2017-04-23 11:04:00,57.6,41.6,30.17,ENE,62,0.0,0.0,55,0.00,,CLR,0.00,626.00,VWS V15.00,2017-04-23 15:04:00,
2017-04-23 11:09:00,57.7,43.0,30.17,North,5,2.0,5.0,58,0.00,,CLR,0.00,830.00,VWS V15.00,2017-04-23 15:09:00,
2017-04-23 11:14:00,57.8,42.2,30.16,NNE,26,0.0,5.0,56,0.00,,CLR,0.00,777.00,VWS V15.00,2017-04-23 15:14:00,
2017-04-23 11:19:00,57.7,43.5,30.17,NE,40,0.0,1.0,59,0.00,,CLR,0.00,856.00,VWS V15.00,2017-04-23 15:19:00,
2017-04-23 11:30:00,58.5,41.9,30.16,ESE,108,2.0,7.0,54,0.00,,CLR,0.00,867.00,VWS V15.00,2017-04-23 15:30:00,
2017-04-23 11:35:00,58.3,41.8,30.16,NE,53,0.0,7.0,54,0.00,,CLR,0.00,877.00,VWS V15.00,2017-04-23 15:35:00,
2017-04-23 11:40:00,58.7,43.1,30.16,NNE,15,0.0,3.0,56,0.00,,CLR,0.00,738.00,VWS V15.00,2017-04-23 15:40:00,
2017-04-23 11:45:00,59.3,43.2,30.16,NNE,18,0.0,5.0,55,0.00,,CLR,0.00,584.00,VWS V15.00,2017-04-23 15:45:00,
2017-04-23 11:50:00,59.6,42.5,30.16,NNW,340,0.0,1.0,53,0.00,,CLR,0.00,323.00,VWS V15.00,2017-04-23 15:50:00,
2017-04-23 11:55:00,60.0,42.3,30.16,ENE,63,0.0,4.0,52,0.00,,CLR,0.00,765.00,VWS V15.00,2017-04-23 15:55:00,
2017-04-23 12:00:00,59.5,42.4,30.16,North,9,0.0,4.0,53,0.00,,CLR,0.00,594.00,VWS V15.00,2017-04-23 16:00:00,
2017-04-23 12:05:00,59.1,41.5,30.16,NE,50,0.0,4.0,52,0.00,,CLR,0.00,747.00,VWS V15.00,2017-04-23 16:05:00,
2017-04-23 12:10:00,59.3,41.7,30.16,East,101,0.0,3.0,52,0.00,,CLR,0.00,431.00,VWS V15.00,2017-04-23 16:10:00,
2017-04-23 12:15:00,59.3,41.7,30.16,ESE,106,0.0,3.0,52,0.00,,CLR,0.00,534.00,VWS V15.00,2017-04-23 16:15:00,
2017-04-23 12:20:00,59.7,41.6,30.16,SSW,208,0.0,0.0,51,0.00,,CLR,0.00,752.00,VWS V15.00,2017-04-23 16:20:00,
2017-04-23 12:30:00,60.0,41.3,30.15,SSW,202,0.0,1.0,50,0.00,,CLR,0.00,814.00,VWS V15.00,2017-04-23 16:30:00,
2017-04-23 12:35:00,59.9,41.2,30.15,SSW,205,0.0,4.0,50,0.00,,CLR,0.00,573.00,VWS V15.00,2017-04-23 16:35:00,
2017-04-23 12:40:00,59.5,41.4,30.15,SSE,154,0.0,3.0,51,0.00,,CLR,0.00,494.00,VWS V15.00,2017-04-23 16:40:00,
2017-04-23 12:45:00,59.4,41.3,30.15,South,175,1.0,4.0,51,0.00,,CLR,0.00,218.00,VWS V15.00,2017-04-23 16:45:00,
2017-04-23 12:50:00,59.3,40.7,30.15,SSE,163,0.0,1.0,50,0.00,,CLR,0.00,406.00,VWS V15.00,2017-04-23 16:50:00,
2017-04-23 12:55:00,59.1,40.5,30.15,WSW,239,0.0,6.0,50,0.00,,CLR,0.00,290.00,VWS V15.00,2017-04-23 16:55:00,
2017-04-23 13:00:00,59.2,40.6,30.15,West,273,0.0,1.0,50,0.00,,CLR,0.00,439.00,VWS V15.00,2017-04-23 17:00:00,
2017-04-23 13:05:00,59.3,41.2,30.14,South,190,0.0,7.0,51,0.00,,CLR,0.00,255.00,VWS V15.00,2017-04-23 17:05:00,
2017-04-23 13:10:00,59.3,41.2,30.14,WSW,240,4.0,6.0,51,0.00,,CLR,0.00,629.00,VWS V15.00,2017-04-23 17:10:00,
2017-04-23 13:15:00,59.6,41.0,30.14,WSW,241,0.0,6.0,50,0.00,,CLR,0.00,355.00,VWS V15.00,2017-04-23 17:15:00,
2017-04-23 13:20:00,60.2,41.5,30.14,West,259,0.0,6.0,50,0.00,,CLR,0.00,260.00,VWS V15.00,2017-04-23 17:20:00,
2017-04-23 13:25:00,60.5,40.7,30.14,WSW,238,0.0,6.0,48,0.00,,CLR,0.00,610.00,VWS V15.00,2017-04-23 17:25:00,
2017-04-23 13:30:00,60.4,41.7,30.14,WSW,241,4.0,4.0,50,0.00,,CLR,0.00,281.00,VWS V15.00,2017-04-23 17:30:00,
2017-04-23 13:35:00,61.0,42.2,30.14,SSW,211,0.0,4.0,50,0.00,,CLR,0.00,527.00,VWS V15.00,2017-04-23 17:35:00,
2017-04-23 13:40:00,61.3,42.0,30.14,SW,229,0.0,2.0,49,0.00,,CLR,0.00,448.00,VWS V15.00,2017-04-23 17:40:00,
2017-04-23 13:45:00,61.3,41.5,30.14,South,185,0.0,4.0,48,0.00,,CLR,0.00,610.00,VWS V15.00,2017-04-23 17:45:00,
2017-04-23 13:50:00,61.7,41.8,30.14,SW,220,0.0,4.0,48,0.00,,CLR,0.00,411.00,VWS V15.00,2017-04-23 17:50:00,
2017-04-23 13:55:00,62.1,41.7,30.14,SW,235,0.0,4.0,47,0.00,,CLR,0.00,448.00,VWS V15.00,2017-04-23 17:55:00,
2017-04-23 14:00:00,62.6,41.5,30.14,South,190,0.0,0.0,46,0.00,,CLR,0.00,715.00,VWS V15.00,2017-04-23 18:00:00,
2017-04-23 14:05:00,62.9,41.3,30.14,SSW,196,0.0,5.0,45,0.00,,CLR,0.00,752.00,VWS V15.00,2017-04-23 18:05:00,
2017-04-23 14:11:00,62.9,40.1,30.14,SW,231,0.0,5.0,43,0.00,,CLR,0.00,626.00,VWS V15.00,2017-04-23 18:11:00,
2017-04-23 14:16:00,63.5,41.8,30.13,SW,231,0.0,5.0,45,0.00,,CLR,0.00,752.00,VWS V15.00,2017-04-23 18:16:00,
2017-04-23 14:21:00,63.8,42.6,30.13,NW,307,5.0,5.0,46,0.00,,CLR,0.00,707.00,VWS V15.00,2017-04-23 18:21:00,
2017-04-23 14:26:00,63.8,41.5,30.12,WNW,298,0.0,6.0,44,0.00,,CLR,0.00,650.00,VWS V15.00,2017-04-23 18:26:00,
2017-04-23 14:31:00,64.4,41.4,30.12,South,170,0.0,8.0,43,0.00,,CLR,0.00,557.00,VWS V15.00,2017-04-23 18:31:00,
2017-04-23 14:36:00,64.3,40.7,30.13,South,169,0.0,8.0,42,0.00,,CLR,0.00,348.00,VWS V15.00,2017-04-23 18:36:00,
2017-04-23 14:41:00,64.0,40.5,30.12,West,266,1.0,6.0,42,0.00,,CLR,0.00,390.00,VWS V15.00,2017-04-23 18:41:00,
2017-04-23 14:46:00,64.4,40.8,30.12,WNW,297,0.0,6.0,42,0.00,,CLR,0.00,272.00,VWS V15.00,2017-04-23 18:46:00,
2017-04-23 14:51:00,64.8,39.9,30.12,SSW,202,1.0,4.0,40,0.00,,CLR,0.00,640.00,VWS V15.00,2017-04-23 18:51:00,
2017-04-23 14:56:00,64.9,39.4,30.12,SW,215,0.0,6.0,39,0.00,,CLR,0.00,554.00,VWS V15.00,2017-04-23 18:56:00,
2017-04-23 15:01:00,64.7,38.5,30.12,SSW,195,0.0,0.0,38,0.00,,CLR,0.00,617.00,VWS V15.00,2017-04-23 19:01:00,
2017-04-23 15:06:00,64.7,38.5,30.11,SSW,194,0.0,1.0,38,0.00,,CLR,0.00,559.00,VWS V15.00,2017-04-23 19:06:00,
2017-04-23 15:11:00,64.8,38.6,30.11,SSW,194,0.0,0.0,38,0.00,,CLR,0.00,603.00,VWS V15.00,2017-04-23 19:11:00,
2017-04-23 15:16:00,65.4,39.8,30.11,SSW,194,0.0,0.0,39,0.00,,CLR,0.00,74.00,VWS V15.00,2017-04-23 19:16:00,
2017-04-23 15:21:00,65.7,40.1,30.11,SSW,213,5.0,6.0,39,0.00,,CLR,0.00,137.00,VWS V15.00,2017-04-23 19:21:00,
2017-04-23 15:26:00,65.6,40.7,30.11,South,181,0.0,6.0,40,0.00,,CLR,0.00,376.00,VWS V15.00,2017-04-23 19:26:00,
2017-04-23 15:31:00,65.5,40.6,30.11,South,188,0.0,0.0,40,0.00,,CLR,0.00,72.00,VWS V15.00,2017-04-23 19:31:00,
2017-04-23 15:36:00,65.8,41.5,30.11,SSE,153,0.0,5.0,41,0.00,,CLR,0.00,575.00,VWS V15.00,2017-04-23 19:36:00,
2017-04-23 15:38:00,65.8,40.2,30.11,South,169,0.0,5.0,39,0.00,,CLR,0.00,606.00,VWS V15.00,2017-04-23 19:38:00,
2017-04-23 15:43:00,65.9,39.6,30.10,South,184,0.0,5.0,38,0.00,,CLR,0.00,693.00,VWS V15.00,2017-04-23 19:43:00,
2017-04-23 15:48:00,65.5,39.9,30.10,SSW,195,4.0,5.0,39,0.00,,CLR,0.00,656.00,VWS V15.00,2017-04-23 19:48:00,
2017-04-23 15:53:00,65.8,41.5,30.10,South,179,0.0,5.0,41,0.00,,CLR,0.00,621.00,VWS V15.00,2017-04-23 19:53:00,
2017-04-23 15:58:00,65.9,40.3,30.10,SW,218,0.0,5.0,39,0.00,,CLR,0.00,573.00,VWS V15.00,2017-04-23 19:58:00,
2017-04-23 16:03:00,66.1,40.5,30.10,South,180,0.0,6.0,39,0.00,,CLR,0.00,438.00,VWS V15.00,2017-04-23 20:03:00,
2017-04-23 16:08:00,65.9,40.9,30.10,SSE,159,1.0,6.0,40,0.00,,CLR,0.00,232.00,VWS V15.00,2017-04-23 20:08:00,
2017-04-23 16:13:00,65.8,40.2,30.10,South,188,0.0,8.0,39,0.00,,CLR,0.00,179.00,VWS V15.00,2017-04-23 20:13:00,
2017-04-23 16:18:00,65.4,42.3,30.10,East,87,0.0,9.0,43,0.00,,CLR,0.00,253.00,VWS V15.00,2017-04-23 20:18:00,
2017-04-23 16:23:00,63.9,42.2,30.10,South,187,10.0,12.0,45,0.00,,CLR,0.00,446.00,VWS V15.00,2017-04-23 20:23:00,
2017-04-23 16:28:00,61.7,41.3,30.11,SW,217,7.0,13.0,47,0.00,,CLR,0.00,366.00,VWS V15.00,2017-04-23 20:28:00,
2017-04-23 16:33:00,60.7,42.0,30.11,South,191,5.0,15.0,50,0.00,,CLR,0.00,487.00,VWS V15.00,2017-04-23 20:33:00,
2017-04-23 16:38:00,60.2,42.0,30.10,South,173,0.0,15.0,51,0.00,,CLR,0.00,446.00,VWS V15.00,2017-04-23 20:38:00,
2017-04-23 16:43:00,60.1,41.9,30.10,South,171,7.0,12.0,51,0.00,,CLR,0.00,316.00,VWS V15.00,2017-04-23 20:43:00,
2017-04-23 16:48:00,60.0,42.3,30.11,South,169,4.0,12.0,52,0.00,,CLR,0.00,304.00,VWS V15.00,2017-04-23 20:48:00,
2017-04-23 16:53:00,59.8,42.2,30.11,SSE,152,11.0,12.0,52,0.00,,CLR,0.00,225.00,VWS V15.00,2017-04-23 20:53:00,
2017-04-23 16:58:00,59.4,42.8,30.11,South,182,4.0,12.0,54,0.00,,CLR,0.00,295.00,VWS V15.00,2017-04-23 20:58:00,
2017-04-23 17:03:00,59.0,42.4,30.11,South,188,4.0,15.0,54,0.00,,CLR,0.00,218.00,VWS V15.00,2017-04-23 21:03:00,
2017-04-23 17:08:00,58.3,42.2,30.11,South,180,2.0,15.0,55,0.00,,CLR,0.00,304.00,VWS V15.00,2017-04-23 21:08:00,
2017-04-23 17:18:00,57.5,42.4,30.11,SSE,151,0.0,13.0,57,0.00,,CLR,0.00,211.00,VWS V15.00,2017-04-23 21:18:00,
2017-04-23 17:28:00,57.3,42.7,30.12,South,184,14.0,16.0,58,0.00,,CLR,0.00,144.00,VWS V15.00,2017-04-23 21:28:00,
2017-04-23 17:33:00,57.2,42.6,30.12,SSE,160,6.0,13.0,58,0.00,,CLR,0.00,230.00,VWS V15.00,2017-04-23 21:33:00,
2017-04-23 17:38:00,56.9,42.3,30.12,South,171,9.0,18.0,58,0.00,,CLR,0.00,200.00,VWS V15.00,2017-04-23 21:38:00,
2017-04-23 17:43:00,56.5,42.4,30.12,South,172,6.0,14.0,59,0.00,,CLR,0.00,53.00,VWS V15.00,2017-04-23 21:43:00,
2017-04-23 17:48:00,56.1,42.4,30.12,SSE,147,3.0,18.0,60,0.00,,CLR,0.00,42.00,VWS V15.00,2017-04-23 21:48:00,
2017-04-23 17:53:00,56.0,42.8,30.12,South,178,0.0,8.0,61,0.00,,CLR,0.00,37.00,VWS V15.00,2017-04-23 21:53:00,
2017-04-23 17:58:00,55.9,42.2,30.12,SE,140,0.0,10.0,60,0.00,,CLR,0.00,37.00,VWS V15.00,2017-04-23 21:58:00,
2017-04-23 18:03:00,55.6,42.0,30.12,South,171,3.0,12.0,60,0.00,,CLR,0.00,33.00,VWS V15.00,2017-04-23 22:03:00,
2017-04-23 18:08:00,55.3,42.1,30.12,SSW,205,6.0,13.0,61,0.00,,CLR,0.00,32.00,VWS V15.00,2017-04-23 22:08:00,
2017-04-23 18:13:00,55.0,42.2,30.12,SSW,198,8.0,8.0,62,0.00,,CLR,0.00,67.00,VWS V15.00,2017-04-23 22:13:00,
2017-04-23 18:18:00,54.8,42.0,30.12,SSW,209,4.0,11.0,62,0.00,,CLR,0.00,46.00,VWS V15.00,2017-04-23 22:18:00,
2017-04-23 18:23:00,54.6,42.3,30.12,South,169,0.0,8.0,63,0.00,,CLR,0.00,49.00,VWS V15.00,2017-04-23 22:23:00,
2017-04-23 18:28:00,54.2,41.9,30.13,SSE,155,5.0,18.0,63,0.00,,CLR,0.00,33.00,VWS V15.00,2017-04-23 22:28:00,